User: anonymous
Location: Maiden
(35.5760°N, 81.2120°W)
Time: 03:30:09
(UTC-04:00)
Language:

Cosmos 2151 - Orbit

View from above orbital plane
View from above orbital plane
View from above satellite
View from above satellite

Ground track
Ground track

The orbit data is extracted from the following two-line orbital elements,

1 21422U 91042A   14243.28351460  .00000654  00000-0  64632-4 0  9877
2 21422 082.5027 137.1906 0016397 101.3144 258.9919 14.90255466256349
Epoch (UTC): 31 August 2014 06:48:15
Eccentricity: 0.0016397
inclination: 82.5027°
perigee height: 586 km
apogee height: 608 km
right ascension of ascending node: 137.1906°
argument of perigee: 101.3144°
revolutions per day: 14.90255466
mean anomaly at epoch: 258.9919°
orbit number at epoch: 25634

The dashed part of the orbit path shows where the satellite is in the earth's shadow,  

DLR